Weather History for Arctic Village, AK

Change the Weather History Date:

Friday, November 2, 2012

  Actual Average Record
Temperature  
Mean Temperature -2 °F -  
Max Temperature 12 °F 5 °F 30 °F (1970)
Min Temperature -16 °F -13 °F -33 °F (1992)
Degree Days  
Heating Degree Days 67    
Moisture  
Dew Point -15 °F    
Average Humidity 54    
Maximum Humidity 100    
Minimum Humidity 4    
Precipitation  
Precipitation 0.00 in - - ()
Sea Level Pressure  
Sea Level Pressure 29.85 in    
Wind  
Wind Speed 2 mph (NNE)    
Max Wind Speed 16 mph    
Max Gust Speed 22 mph    
Visibility 10 miles    
Events      
Averages and records for this station are not official NWS values.
T = Trace of Precipitation, MM = Missing Value Source: NWS Daily Summary

Daily Weather History Graph

Daily Weather History Graph

Search for Another Location

Airport:

Trip Planner

Search our weather history database for the weather conditions in past years. The results will help you decide how hot, cold, wet, or windy it might be!

Date:

Astronomy

Nov. 02, 2012 Rise Set
Actual Time 10:01 AM AKDT 4:48 PM AKDT
Civil Twilight 8:54 AM AKDT 5:55 PM AKDT
Nautical Twilight 7:46 AM AKDT 7:03 PM AKDT
Astronomical Twilight 6:41 AM AKDT 8:08 PM AKDT
Moon 6:03 PM AKDT (11/2) 3:12 PM AKDT (11/2)
Length of Visible Light 9h 01m
Length of Day
6h 47m
Waning Gibbous, 86% of the Moon is Illuminated
Nov 2
Waning Gibbous
Nov 6
Last Quarter
Nov 13
New
Nov 20
First Quarter
Nov 28
Full

Hourly Weather History & Observations

Time (AKDT) Temp. Windchill Dew Point Humidity Pressure Visibility Wind Dir Wind Speed Gust Speed Precip Events Conditions
12:16 AM -16.6 °F - - N/A% 29.96 in 10.0 mi Calm Calm - N/A   Clear
12:36 AM -16.6 °F - - N/A% 29.96 in 10.0 mi Calm Calm - N/A   Clear
12:56 AM -16.6 °F - - N/A% 29.96 in 10.0 mi Calm Calm - N/A   Clear
1:16 AM -16.6 °F - - N/A% 29.95 in 10.0 mi Calm Calm - N/A   Scattered Clouds
1:36 AM -16.6 °F - - N/A% 29.95 in 10.0 mi Calm Calm - N/A   Overcast
1:56 AM -14.8 °F - - N/A% 29.94 in 10.0 mi Calm Calm - N/A   Mostly Cloudy
2:16 AM -14.8 °F - - N/A% 29.94 in 10.0 mi Calm Calm - N/A   Scattered Clouds
2:36 AM -14.8 °F - - N/A% 29.93 in 10.0 mi Calm Calm - N/A   Scattered Clouds
2:56 AM -13.0 °F - -18.4 °F 77% 29.93 in 10.0 mi Calm Calm - N/A   Mostly Cloudy
3:16 AM -13.0 °F - -16.6 °F 84% 29.92 in 10.0 mi Calm Calm - N/A   Mostly Cloudy
3:36 AM -11.2 °F - - N/A% 29.91 in 10.0 mi Calm Calm - N/A   Mostly Cloudy
3:56 AM -11.2 °F - - N/A% 29.91 in 10.0 mi Calm Calm - N/A   Scattered Clouds
4:16 AM -11.2 °F - - N/A% 29.90 in 10.0 mi Calm Calm - N/A   Partly Cloudy
4:36 AM -11.2 °F - -16.6 °F 77% 29.89 in 10.0 mi Calm Calm - N/A   Partly Cloudy
4:56 AM -11.2 °F - -20.2 °F 64% 29.89 in 9.0 mi Calm Calm - N/A   Partly Cloudy
5:16 AM -11.2 °F - -25.6 °F 49% 29.88 in 10.0 mi Calm Calm - N/A   Mostly Cloudy
5:36 AM -11.2 °F - - N/A% 29.88 in 10.0 mi Calm Calm - N/A   Mostly Cloudy
5:56 AM -11.2 °F - -29.2 °F 41% 29.87 in 10.0 mi Calm Calm - N/A   Mostly Cloudy
6:16 AM -9.4 °F - - N/A% 29.87 in 10.0 mi Calm Calm - N/A   Partly Cloudy
6:36 AM -9.4 °F - - N/A% 29.86 in 10.0 mi Calm Calm - N/A   Clear
6:56 AM -11.2 °F - - N/A% 29.86 in 10.0 mi Calm Calm - N/A   Partly Cloudy
7:16 AM -9.4 °F - -22.0 °F 54% 29.86 in 10.0 mi Calm Calm - N/A   Mostly Cloudy
7:36 AM -11.2 °F - -11.2 °F 100% 29.86 in 10.0 mi Calm Calm - N/A   Mostly Cloudy
7:56 AM -11.2 °F - -23.8 °F 54% 29.86 in 10.0 mi Calm Calm - N/A   Scattered Clouds
8:16 AM -9.4 °F - -11.2 °F 92% 29.85 in 10.0 mi Calm Calm - N/A   Mostly Cloudy
8:36 AM -11.2 °F - -23.8 °F 54% 29.85 in 10.0 mi Calm Calm - N/A   Overcast
8:56 AM -9.4 °F - -9.4 °F 100% 29.85 in 10.0 mi Calm Calm - N/A   Scattered Clouds
9:16 AM -11.2 °F - - N/A% 29.85 in 10.0 mi Calm Calm - N/A   Clear
9:36 AM -11.2 °F - - N/A% 29.84 in 9.0 mi Calm Calm - N/A   Clear
9:56 AM -9.4 °F -20.9 °F - N/A% 29.84 in 10.0 mi North 4.6 mph - N/A   Scattered Clouds
10:16 AM -11.2 °F - -25.6 °F 49% 29.84 in 7.0 mi Calm Calm - N/A   Partly Cloudy
10:36 AM -11.2 °F -23.0 °F -22.0 °F 59% 29.83 in 10.0 mi North 4.6 mph - N/A   Clear
10:56 AM -13.0 °F - -27.4 °F 49% 29.84 in 10.0 mi Calm Calm - N/A   Partly Cloudy
11:16 AM -11.2 °F - -11.2 °F 100% 29.84 in 9.0 mi Calm Calm - N/A   Mostly Cloudy
11:36 AM -9.4 °F -20.9 °F -27.4 °F 41% 29.84 in 10.0 mi North 4.6 mph - N/A   Overcast
11:56 AM -7.6 °F - - N/A% 29.84 in 10.0 mi Calm Calm - N/A   Overcast
12:16 PM -7.6 °F - - N/A% 29.84 in 10.0 mi Calm Calm - N/A   Mostly Cloudy
12:36 PM -7.6 °F - -29.2 °F 34% 29.83 in 10.0 mi Calm Calm - N/A   Partly Cloudy
12:56 PM -7.6 °F - -20.2 °F 54% 29.83 in 10.0 mi Calm Calm - N/A   Scattered Clouds
1:16 PM -5.8 °F - -16.6 °F 60% 29.83 in 10.0 mi Calm Calm - N/A   Mostly Cloudy
1:36 PM -5.8 °F - -16.6 °F 60% 29.83 in 10.0 mi Calm Calm - N/A   Overcast
1:56 PM -4.0 °F - -11.2 °F 71% 29.82 in 10.0 mi Calm Calm - N/A   Mostly Cloudy
2:16 PM -2.2 °F - -13.0 °F 60% 29.81 in 10.0 mi Calm Calm - N/A   Partly Cloudy
2:36 PM -2.2 °F - -13.0 °F 60% 29.81 in 10.0 mi Calm Calm - N/A   Mostly Cloudy
2:56 PM -0.4 °F - -74.2 °F 4% 29.81 in 10.0 mi Calm Calm - N/A   Overcast
3:16 PM 1.4 °F -9.9 °F -29.2 °F 23% 29.80 in 10.0 mi North 5.8 mph - N/A   Overcast
3:36 PM 12.2 °F -2.5 °F -2.2 °F 53% 29.80 in 10.0 mi North 12.7 mph 18.4 mph N/A   Overcast
3:56 PM 12.2 °F -1.0 °F -5.8 °F 45% 29.80 in 10.0 mi North 10.4 mph 19.6 mph N/A   Overcast
4:16 PM 12.2 °F -0.2 °F -5.8 °F 45% 29.80 in 10.0 mi North 9.2 mph - N/A   Scattered Clouds
4:36 PM 10.4 °F -5.4 °F -4.0 °F 52% 29.80 in 10.0 mi North 13.8 mph 17.3 mph N/A   Mostly Cloudy
4:56 PM 10.4 °F -6.0 °F -5.8 °F 48% 29.80 in 10.0 mi North 15.0 mph 20.7 mph N/A   Mostly Cloudy
5:16 PM 10.4 °F -5.4 °F -5.8 °F 48% 29.80 in 10.0 mi North 13.8 mph 21.9 mph N/A   Mostly Cloudy
5:36 PM 10.4 °F -6.6 °F -5.8 °F 48% 29.80 in 10.0 mi North 16.1 mph 20.7 mph N/A   Mostly Cloudy
5:56 PM 8.6 °F -7.0 °F -7.6 °F 48% 29.81 in 10.0 mi North 12.7 mph - N/A   Mostly Cloudy
6:16 PM 8.6 °F -6.3 °F -7.6 °F 48% 29.81 in 10.0 mi North 11.5 mph - N/A   Mostly Cloudy
6:36 PM 8.6 °F -6.3 °F -9.4 °F 44% 29.82 in 10.0 mi NNE 11.5 mph 18.4 mph N/A   Scattered Clouds
6:56 PM 8.6 °F -7.0 °F -7.6 °F 48% 29.82 in 10.0 mi North 12.7 mph - N/A   Mostly Cloudy
7:16 PM 6.8 °F -7.8 °F -7.6 °F 52% 29.82 in 10.0 mi North 10.4 mph 16.1 mph N/A   Overcast
7:36 PM 6.8 °F -8.6 °F -7.6 °F 52% 29.82 in 10.0 mi North 11.5 mph - N/A   Overcast
7:56 PM 6.8 °F -8.6 °F -9.4 °F 48% 29.82 in 10.0 mi North 11.5 mph 17.3 mph N/A   Overcast
8:16 PM 6.8 °F -7.8 °F -11.2 °F 44% 29.83 in 10.0 mi NNE 10.4 mph - N/A   Overcast
8:36 PM 6.8 °F -6.9 °F - N/A% 29.83 in 10.0 mi NNE 9.2 mph - N/A   Overcast
8:56 PM 6.8 °F -7.8 °F -11.2 °F 44% 29.83 in 10.0 mi NNE 10.4 mph - N/A   Overcast
9:16 PM 6.8 °F -6.9 °F -9.4 °F 48% 29.83 in 10.0 mi NNE 9.2 mph 16.1 mph N/A   Overcast
9:36 PM 6.8 °F -8.6 °F -9.4 °F 48% 29.83 in 10.0 mi NNE 11.5 mph 18.4 mph N/A   Overcast
9:56 PM 6.8 °F -9.3 °F - N/A% 29.83 in 10.0 mi NNE 12.7 mph 16.1 mph N/A   Overcast
10:16 PM 6.8 °F -6.9 °F -9.4 °F 48% 29.83 in 10.0 mi NNE 9.2 mph 17.3 mph N/A   Overcast
10:36 PM 6.8 °F -7.8 °F -11.2 °F 44% 29.83 in 10.0 mi NNE 10.4 mph 18.4 mph N/A   Overcast
11:16 PM 6.8 °F -8.6 °F -7.6 °F 52% 29.84 in 10.0 mi NE 11.5 mph - N/A   Mostly Cloudy
11:36 PM 3.2 °F -11.3 °F -14.8 °F 43% 29.84 in 10.0 mi NE 9.2 mph - N/A   Mostly Cloudy
11:56 PM 3.2 °F -10.3 °F -16.6 °F 39% 29.84 in 10.0 mi NE 8.1 mph - N/A   Scattered Clouds